| time (UTC) | temp F | wind direction | speed knots | gust knots | rain 1hr in | rain 24hr in | rain mn in | humidity % | barometer mb |
| 20260504201604 | 82 | 172 | 2.6 | 10.4 | 0.00 | 0.00 | 0.00 | 32 | 1016.2 |
| 20260504201103 | 82 | 192 | 0.9 | 5.2 | 0.00 | 0.00 | 0.00 | 35 | 1016.5 |
| 20260504195104 | 80 | 241 | 0.0 | 10.4 | 0.00 | 0.00 | 0.00 | 35 | 1016.7 |
| 20260504192604 | 82 | 187 | 1.7 | 6.1 | 0.00 | 0.00 | 0.00 | 36 | 1017.0 |
| 20260504192104 | 82 | 203 | 0.0 | 7.0 | 0.00 | 0.00 | 0.00 | 36 | 1017.2 |
| 20260504191604 | 81 | 205 | 0.0 | 7.0 | 0.00 | 0.00 | 0.00 | 40 | 1017.3 |
| 20260504190604 | 81 | 175 | 2.6 | 6.1 | 0.00 | 0.00 | 0.00 | 34 | 1017.3 |
| 20260504190104 | 81 | 251 | 1.7 | 6.1 | 0.00 | 0.00 | 0.00 | 35 | 1017.3 |
| 20260504185603 | 82 | 177 | 1.7 | 6.1 | 0.00 | 0.00 | 0.00 | 32 | 1017.3 |
| 20260504185103 | 82 | 100 | 0.0 | 4.3 | 0.00 | 0.00 | 0.00 | 37 | 1017.4 |
| 20260504184104 | 82 | 128 | 1.7 | 6.1 | 0.00 | 0.00 | 0.00 | 35 | 1017.6 |
| 20260504183104 | 83 | 291 | 0.9 | 5.2 | 0.00 | 0.00 | 0.00 | 38 | 1017.9 |
| 20260504182603 | 82 | 284 | 1.7 | 5.2 | 0.00 | 0.00 | 0.00 | 37 | 1017.9 |
| 20260504180604 | 80 | 129 | 0.0 | 2.6 | 0.00 | 0.00 | 0.00 | 40 | 1017.9 |
| 20260504175603 | 80 | 305 | 0.0 | 6.1 | 0.00 | 0.00 | 0.00 | 40 | 1018.2 |
| 20260504174604 | 80 | 174 | 0.9 | 4.3 | 0.00 | 0.00 | 0.00 | 36 | 1018.1 |
| 20260504174104 | 80 | 283 | 0.0 | 1.7 | 0.00 | 0.00 | 0.00 | 42 | 1018.3 |
| 20260504171103 | 77 | 206 | 1.7 | 5.2 | 0.00 | 0.00 | 0.00 | 41 | 1018.6 |
| 20260504170604 | 78 | 223 | 0.9 | 2.6 | 0.00 | 0.00 | 0.00 | 43 | 1018.7 |
| 20260504160104 | 74 | 328 | 0.0 | 1.7 | 0.00 | 0.00 | 0.00 | 47 | 1019.5 |
| 20260504150603 | 70 | 223 | 0.9 | 2.6 | 0.00 | 0.00 | 0.00 | 50 | 1019.8 |
| 20260504150104 | 69 | 242 | 0.0 | 7.0 | 0.00 | 0.00 | 0.00 | 52 | 1019.8 |
| 20260504141104 | 63 | 219 | 0.9 | 4.3 | 0.00 | 0.00 | 0.00 | 60 | 1020.0 |
| 20260504140604 | 62 | 285 | 0.0 | 2.6 | 0.00 | 0.00 | 0.00 | 62 | 1020.1 |
| 20260504140103 | 61 | 240 | 0.0 | 2.6 | 0.00 | 0.00 | 0.00 | 62 | 1020.0 |
| 20260504130604 | 53 | 220 | 0.0 | 1.7 | 0.00 | 0.00 | 0.00 | 78 | 1019.9 |
| 20260504120104 | 47 | 111 | 0.0 | 0.0 | 0.00 | 0.00 | 0.00 | 85 | 1019.8 |
| 20260504110604 | 47 | 284 | 0.0 | 0.0 | 0.00 | 0.00 | 0.00 | 82 | 1019.5 |
| 20260504110104 | 47 | 284 | 0.0 | 0.0 | 0.00 | 0.00 | 0.00 | 82 | 1019.5 |
| 20260504090104 | 49 | 284 | 0.0 | 0.0 | 0.00 | 0.00 | 0.00 | 78 | 1019.1 |
| 20260504080604 | 49 | 284 | 0.0 | 0.0 | 0.00 | 0.00 | 0.00 | 76 | 1018.9 |
| 20260504060104 | 52 | 284 | 0.0 | 0.0 | 0.00 | 0.00 | 0.00 | 69 | 1019.6 |
| 20260504050104 | 53 | 284 | 0.0 | 0.0 | 0.00 | 0.00 | 0.00 | 67 | 1019.7 |
| 20260504045603 | 53 | 284 | 0.0 | 0.0 | 0.00 | 0.00 | 0.00 | 67 | 1019.6 |
| 20260504044103 | 53 | 284 | 0.0 | 0.0 | 0.00 | 0.00 | 0.00 | 67 | 1019.6 |
| 20260504043604 | 53 | 284 | 0.0 | 0.0 | 0.00 | 0.00 | 0.00 | 67 | 1019.6 |
| 20260504043103 | 53 | 284 | 0.0 | 0.0 | 0.00 | 0.00 | 0.00 | 67 | 1019.7 |
| 20260504041106 | 54 | 284 | 0.0 | 0.0 | 0.00 | 0.00 | 0.00 | 66 | 1019.7 |
| 20260504035104 | 54 | 284 | 0.0 | 0.9 | 0.00 | 0.00 | 0.00 | 65 | 1019.8 |
| 20260504034104 | 54 | 284 | 0.0 | 0.9 | 0.00 | 0.00 | 0.00 | 64 | 1020.0 |
| 20260504033604 | 54 | 284 | 0.0 | 0.0 | 0.00 | 0.00 | 0.00 | 63 | 1020.0 |
| 20260504032105 | 55 | 284 | 0.0 | 0.0 | 0.00 | 0.00 | 0.00 | 62 | 1019.9 |
| 20260504030104 | 55 | 284 | 0.0 | 0.0 | 0.00 | 0.00 | 0.00 | 61 | 1019.8 |
| 20260504025104 | 56 | 284 | 0.0 | 0.0 | 0.00 | 0.00 | 0.00 | 59 | 1019.9 |
| 20260504024604 | 56 | 284 | 0.0 | 0.0 | 0.00 | 0.00 | 0.00 | 58 | 1019.9 |
| 20260504023604 | 56 | 284 | 0.0 | 0.0 | 0.00 | 0.00 | 0.00 | 58 | 1019.8 |
| 20260504022603 | 57 | 284 | 0.0 | 0.0 | 0.00 | 0.00 | 0.00 | 57 | 1019.7 |
| 20260504022103 | 57 | 284 | 0.0 | 0.0 | 0.00 | 0.00 | 0.00 | 57 | 1019.7 |
| 20260504021103 | 58 | 284 | 0.0 | 0.0 | 0.00 | 0.00 | 0.00 | 57 | 1019.6 |
| 20260504020604 | 58 | 284 | 0.0 | 0.0 | 0.00 | 0.00 | 0.00 | 56 | 1019.5 |
| 20260504015604 | 58 | 284 | 0.0 | 0.0 | 0.00 | 0.00 | 0.00 | 54 | 1019.4 |
| 20260504014103 | 59 | 284 | 0.0 | 0.0 | 0.00 | 0.00 | 0.00 | 53 | 1019.1 |
| 20260504013604 | 60 | 284 | 0.0 | 0.0 | 0.00 | 0.00 | 0.00 | 53 | 1019.2 |
| 20260504012104 | 60 | 284 | 0.0 | 0.0 | 0.00 | 0.00 | 0.00 | 51 | 1019.1 |
| 20260504011603 | 61 | 284 | 0.0 | 0.0 | 0.00 | 0.00 | 0.00 | 51 | 1019.0 |
| 20260504011104 | 61 | 283 | 0.0 | 0.0 | 0.00 | 0.00 | 0.00 | 50 | 1019.0 |
| 20260504010604 | 61 | 283 | 0.0 | 0.0 | 0.00 | 0.00 | 0.00 | 50 | 1018.9 |
| 20260504010104 | 62 | 283 | 0.0 | 0.0 | 0.00 | 0.00 | 0.00 | 49 | 1018.9 |
| 20260504005104 | 62 | 283 | 0.0 | 0.9 | 0.00 | 0.00 | 0.00 | 48 | 1018.6 |
| 20260504004603 | 62 | 283 | 0.0 | 0.9 | 0.00 | 0.00 | 0.00 | 48 | 1018.6 |
| 20260504003103 | 63 | 283 | 0.0 | 0.9 | 0.00 | 0.00 | 0.00 | 47 | 1018.5 |
| 20260504002104 | 64 | 283 | 0.0 | 0.9 | 0.00 | 0.00 | 0.00 | 46 | 1018.5 |
| 20260504001103 | 64 | 283 | 0.0 | 0.9 | 0.00 | 0.00 | 0.00 | 45 | 1018.3 |
| 20260504000603 | 64 | 283 | 0.0 | 0.9 | 0.00 | 0.00 | 0.00 | 44 | 1018.3 |
| 20260503234604 | 65 | 283 | 0.0 | 0.9 | 0.00 | 0.00 | 0.00 | 43 | 1018.3 |
| 20260503231604 | 66 | 277 | 0.0 | 2.6 | 0.00 | 0.00 | 0.00 | 42 | 1018.4 |
| 20260503231104 | 67 | 276 | 0.0 | 2.6 | 0.00 | 0.00 | 0.00 | 41 | 1018.4 |
| 20260503230604 | 67 | 275 | 0.0 | 2.6 | 0.00 | 0.00 | 0.00 | 41 | 1018.4 |
| 20260503225604 | 67 | 258 | 0.0 | 2.6 | 0.00 | 0.00 | 0.00 | 42 | 1018.5 |
| 20260503224604 | 67 | 286 | 0.9 | 6.1 | 0.00 | 0.00 | 0.00 | 40 | 1018.5 |
| 20260503223603 | 68 | 237 | 0.9 | 2.6 | 0.00 | 0.00 | 0.00 | 40 | 1018.4 |
| 20260503222604 | 68 | 285 | 0.0 | 1.7 | 0.00 | 0.00 | 0.00 | 39 | 1018.4 |
| 20260503222104 | 69 | 285 | 0.0 | 2.6 | 0.00 | 0.00 | 0.00 | 38 | 1018.4 |
| 20260503220604 | 70 | 267 | 0.9 | 2.6 | 0.00 | 0.00 | 0.00 | 38 | 1018.3 |
| 20260503213604 | 72 | 227 | 0.0 | 4.3 | 0.00 | 0.00 | 0.00 | 37 | 1018.5 |
| 20260503213105 | 73 | 147 | 0.9 | 2.6 | 0.00 | 0.00 | 0.00 | 36 | 1018.6 |
| 20260503212604 | 73 | 271 | 0.9 | 2.6 | 0.00 | 0.00 | 0.00 | 36 | 1018.5 |
| 20260503212104 | 74 | 289 | 0.9 | 2.6 | 0.00 | 0.00 | 0.00 | 37 | 1018.5 |
| 20260503210603 | 74 | 242 | 0.0 | 2.6 | 0.00 | 0.00 | 0.00 | 34 | 1018.8 |
| 20260503210104 | 74 | 292 | 0.9 | 4.3 | 0.00 | 0.00 | 0.00 | 35 | 1018.8 |
| 20260503205104 | 74 | 245 | 0.9 | 7.0 | 0.00 | 0.00 | 0.00 | 34 | 1018.9 |
| 20260503204604 | 75 | 272 | 0.9 | 5.2 | 0.00 | 0.00 | 0.00 | 36 | 1018.9 |